Starlink 32220

operational
NORAD ID: 60370 Int'l Des: 2024-138 Owner: SPXS Country: US Constellation: starlink
LEOCIRCULAR

About Starlink 32220

Description loading...

Live Position

Loading 3D Globe...

Upcoming Passes

Altitude History

Altitude vs Time

uPlot chart will show altitude changes over time

Two-Line Element Set

1 60370U 24138R 25306.37771007 .00000858 00000-0 41097-4 0 9998
2 60370 53.1588 181.0879 0001441 94.7639 265.3526 15.30188250 71134
Epoch: Nov 2, 2025 • Age: 37 hours

Current Status

Altitude 489.4 km
Velocity 7.62 km/s
Sub-Earth Point -40.33°S, 114.39°E
Launch Date Aug 4, 2024
Age 1.2 years
Type internet

Technical Details

Classification Payload
Mass 730.00 kg
Dry Mass 700.00 kg
Total Mass 730.00 kg
Length 0.30 m
Diameter 4.10 m
Span 29.00 m
Shape Box + pan
Manufacturer SPXS
Bus Type Starlink V2M
Phase Status In Orbit
Owner/State SPXS/US

Large Constellations

Loading constellations...